{"data":{"norad_id":57342,"epoch":"2026-09-20T14:17:38.568192Z","epoch_age_seconds":115910,"freshness":"FRESH","line1":"1 57342U 23099Q   26263.59558528 -.00000143  00000+0  43138-5 0  9992","line2":"2 57342  43.0015 228.3615 0001075 264.3934  95.6795 15.27576519175920","mean_motion":15.27576519,"eccentricity":0.0001075,"inclination_deg":43.0015,"raan_deg":228.3615,"arg_perigee_deg":264.3934,"mean_anomaly_deg":95.6795,"bstar":4.3138e-6,"rev_number":17592,"period_min":94.266963526166,"perigee_km":482.32194079989,"apogee_km":483.79709805157,"semimajor_km":6861.1965194257,"source":"CELESTRAK","updated_at":"2026-09-21T09:00:33.598738Z"}}